EW5297 Upper Orara AU current weather conditions

sailwx.info

Wind from 330 at 0 knots gusting 5

Air temperature 26.1° C
Dewpoint 23.2° C

Last reported at 2020-Jan-22 15:03 UTC.
Time now 2020-Jan-22 15:47 UTC

Location: S 30°15' E 152°58'.
View on Google Maps.

See reports from other nearby stations

  
Tides and Currents Weather Stations Pressure Air Temp Water Temp Dewpoint Dewpoint Depression Visibility Wind Speed Wind Dir Waves Ship Positions
date/time (UTC)wind fromknots sea level pressurealtimeterstation pressurevisibilityair tempwater tempwave heightnotes
2020-Jan-22 15:03 330 0 gusting 5 26.1
2020-Jan-22 14:58 325 26.1
2020-Jan-22 14:53 325 26.1
2020-Jan-22 14:48 325 26.1
2020-Jan-22 14:43 330 26.1
2020-Jan-22 14:38 301 26.1
2020-Jan-22 14:33 290 26.7
2020-Jan-22 14:28 318 26.7
2020-Jan-22 14:23 321 0 gusting 7 26.7
2020-Jan-22 14:18 333 0 gusting 7 26.7
2020-Jan-22 14:13 331 26.7
2020-Jan-22 14:08 306 26.7
2020-Jan-22 14:03 329 0 gusting 7 26.7
2020-Jan-22 13:58 323 0 gusting 5 26.7
2020-Jan-22 13:53 338 0 gusting 5 26.7
2020-Jan-22 13:48 322 0 gusting 5 26.7
2020-Jan-22 13:43 331 0 gusting 6 26.1
2020-Jan-22 13:38 305 26.1
2020-Jan-22 13:33 313 0 gusting 5 25.6
2020-Jan-22 13:28 300 25.6
2020-Jan-22 13:23 273 25.6
2020-Jan-22 13:18 332 25.0
2020-Jan-22 13:13 263 25.0
2020-Jan-22 13:08 317 25.0
2020-Jan-22 13:03 322 24.4
2020-Jan-22 12:58 286 23.9
2020-Jan-22 12:53 276 23.9
2020-Jan-22 12:48 276 23.9
2020-Jan-22 12:43 276 23.9
2020-Jan-22 12:38 275 23.9
2020-Jan-22 12:33 275 23.9
2020-Jan-22 12:28 275 23.9
2020-Jan-22 12:23 275 23.9
2020-Jan-22 12:18 275 23.9
2020-Jan-22 12:13 275 23.9
2020-Jan-22 12:08 275 23.9
2020-Jan-22 11:53 275 23.9
2020-Jan-22 11:48 275 23.9
2020-Jan-22 11:43 275 23.9
2020-Jan-22 11:38 275 23.9
2020-Jan-22 11:33 275 23.9
2020-Jan-22 11:28 275 23.9
2020-Jan-22 11:23 274 23.9
2020-Jan-22 11:18 274 23.9
2020-Jan-22 11:13 274 24.4
2020-Jan-22 11:08 274 24.4
2020-Jan-22 11:03 274 24.4
2020-Jan-22 10:58 274 24.4
2020-Jan-22 10:53 274 24.4
2020-Jan-22 10:48 274 25.0
2020-Jan-22 10:43 274 25.0
2020-Jan-22 10:38 274 25.0
2020-Jan-22 10:33 274 25.0
2020-Jan-22 10:28 274 25.0
2020-Jan-22 10:23 274 25.0
2020-Jan-22 10:18 274 25.0
2020-Jan-22 10:13 274 25.0
2020-Jan-22 10:08 274 25.0
2020-Jan-22 10:03 274 25.0
2020-Jan-22 09:58 274 25.0
2020-Jan-22 09:53 274 25.0
2020-Jan-22 09:48 274 25.0
2020-Jan-22 09:43 275 25.6
2020-Jan-22 09:38 275 25.6
2020-Jan-22 09:33 274 25.6
2020-Jan-22 09:28 273 25.6
2020-Jan-22 09:23 273 26.1
2020-Jan-22 09:18 273 26.1
2020-Jan-22 09:13 273 26.1
2020-Jan-22 09:08 272 26.7
2020-Jan-22 09:03 272 26.7
2020-Jan-22 08:58 273 27.2
2020-Jan-22 08:53 272 27.2
2020-Jan-22 08:48 272 27.2
2020-Jan-22 08:43 272 27.2
2020-Jan-22 08:38 272 27.8
2020-Jan-22 08:33 272 27.8
2020-Jan-22 08:28 272 27.8
2020-Jan-22 08:23 272 28.3
2020-Jan-22 08:18 271 28.9
2020-Jan-22 08:13 267 28.9
2020-Jan-22 08:08 267 29.4
2020-Jan-22 08:03 266 29.4
2020-Jan-22 07:58 266 29.4
2020-Jan-22 07:53 307 29.4
2020-Jan-22 07:48 307 29.4
2020-Jan-22 07:43 307 30.0
2020-Jan-22 07:38 307 30.0
2020-Jan-22 07:33 059 30.0
2020-Jan-22 07:28 059 30.6
2020-Jan-22 07:23 059 30.6
2020-Jan-22 07:18 059 30.6
2020-Jan-22 07:13 059 30.6
2020-Jan-22 07:08 059 30.6
2020-Jan-22 07:03 059 30.6
2020-Jan-22 06:58 059 30.6
2020-Jan-22 06:53 059 31.1
2020-Jan-22 06:48 179 31.1
2020-Jan-22 06:43 179 31.1
2020-Jan-22 06:38 181 31.1
2020-Jan-22 06:33 181 0 gusting 3 31.1
2020-Jan-22 06:28 314 31.1
2020-Jan-22 06:23 314 31.1
2020-Jan-22 06:18 355 31.1
2020-Jan-22 06:13 344 31.1
2020-Jan-22 06:08 118 31.1
2020-Jan-22 06:03 051 31.1
2020-Jan-22 05:58 051 0 gusting 6 31.1
2020-Jan-22 05:53 119 31.7
2020-Jan-22 05:48 084 31.7
2020-Jan-22 05:43 111 31.7
2020-Jan-22 05:38 121 31.7
2020-Jan-22 05:33 125 31.7
2020-Jan-22 05:28 129 31.7
2020-Jan-22 05:23 107 31.7
2020-Jan-22 05:18 067 1 gusting 6 31.7
2020-Jan-22 05:13 269 31.1
2020-Jan-22 05:08 159 2 gusting 7 31.1
2020-Jan-22 05:03 108 1 gusting 9 30.6
2020-Jan-22 04:58 153 4 gusting 9 31.1
2020-Jan-22 04:53 146 1 gusting 8 31.1
2020-Jan-22 04:48 153 5 gusting 8 31.7
2020-Jan-22 04:43 150 0 gusting 4 31.7
2020-Jan-22 04:38 145 31.7
2020-Jan-22 04:33 149 31.1
2020-Jan-22 04:28 140 1 gusting 9 31.1
2020-Jan-22 03:53 161 1 gusting 7 31.7
2020-Jan-22 03:48 153 0 gusting 7 31.7
2020-Jan-22 03:43 139 1 gusting 12 31.1
2020-Jan-22 03:38 151 3 gusting 14 30.6
2020-Jan-22 03:33 134 8 gusting 14 31.1
2020-Jan-22 03:28 154 4 gusting 12 31.1
2020-Jan-22 03:23 158 4 gusting 10 31.7
2020-Jan-22 03:18 143 4 gusting 10 32.2
2020-Jan-22 03:13 111 0 gusting 6 32.2
2020-Jan-22 03:08 024 0 gusting 6 32.2
2020-Jan-22 03:03 123 1 gusting 6 32.2
2020-Jan-22 02:58 139 32.2
2020-Jan-22 02:53 176 3 gusting 12 32.2
2020-Jan-22 02:48 128 0 gusting 12 31.7
2020-Jan-22 02:43 178 3 gusting 11 32.2
2020-Jan-22 02:38 126 2 gusting 11 32.2
2020-Jan-22 02:33 145 3 gusting 11 32.2
2020-Jan-22 02:28 103 6 gusting 11 32.8
2020-Jan-22 02:23 134 1 gusting 11 33.3
2020-Jan-22 02:18 130 6 gusting 10 33.3
2020-Jan-22 02:13 145 3 gusting 7 33.9
2020-Jan-22 02:08 121 0 gusting 7 34.4
2020-Jan-22 02:03 069 35.0
2020-Jan-22 01:58 286 34.4
2020-Jan-22 01:53 319 34.4
2020-Jan-22 01:48 271 0 gusting 3 33.9
2020-Jan-22 01:43 350 33.9
2020-Jan-22 01:38 030 33.9
2020-Jan-22 01:33 074 0 gusting 5 33.9
2020-Jan-22 01:28 060 0 gusting 5 33.3
2020-Jan-22 01:23 166 33.9
2020-Jan-22 01:18 005 33.3
2020-Jan-22 01:13 171 0 gusting 6 32.8
2020-Jan-22 01:08 136 0 gusting 6 32.8
2020-Jan-22 01:03 161 0 gusting 4 32.8
2020-Jan-22 00:58 153 0 gusting 4 32.2
2020-Jan-22 00:53 140 32.2
2020-Jan-22 00:48 132 32.2
2020-Jan-22 00:43 051 31.7
2020-Jan-22 00:38 141 31.7
2020-Jan-22 00:33 144 31.1
2020-Jan-22 00:28 150 2 gusting 6 31.1
2020-Jan-22 00:23 101 31.1
2020-Jan-22 00:18 148 30.6
2020-Jan-22 00:13 084 30.6
2020-Jan-22 00:08 167 30.6
2020-Jan-22 00:03 144 30.0
2020-Jan-21 23:58 146 30.0
2020-Jan-21 23:53 150 29.4
2020-Jan-21 23:48 146 29.4
2020-Jan-21 23:43 145 28.9
2020-Jan-21 23:38 131 28.9
2020-Jan-21 23:33 152 28.9
2020-Jan-21 23:28 153 28.9
2020-Jan-21 23:23 137 28.3
2020-Jan-21 23:18 152 28.3
2020-Jan-21 23:13 142 28.3
2020-Jan-21 23:08 144 27.8
2020-Jan-21 23:03 144 27.8
2020-Jan-21 22:58 143 27.2
2020-Jan-21 22:53 144 26.7
2020-Jan-21 22:48 151 26.7
2020-Jan-21 22:43 171 26.1
2020-Jan-21 22:38 140 26.1
2020-Jan-21 22:33 163 26.1
2020-Jan-21 22:28 321 25.6
2020-Jan-21 22:23 321 25.6
2020-Jan-21 22:18 322 25.0
2020-Jan-21 22:13 322 24.4
2020-Jan-21 22:08 322 24.4
2020-Jan-21 22:03 322 23.9
2020-Jan-21 21:58 322 23.3
2020-Jan-21 21:53 322 23.3
2020-Jan-21 21:48 322 22.8
2020-Jan-21 21:43 322 22.2
2020-Jan-21 21:38 322 21.7
2020-Jan-21 21:33 322 21.7
2020-Jan-21 21:28 322 21.1
2020-Jan-21 21:23 322 20.6
2020-Jan-21 21:18 322 20.6
2020-Jan-21 21:13 322 20.6
2020-Jan-21 21:08 322 20.0
2020-Jan-21 21:03 321 20.0
2020-Jan-21 20:58 321 20.0
2020-Jan-21 20:53 321 19.4
2020-Jan-21 20:48 321 19.4
2020-Jan-21 20:43 322 18.9
2020-Jan-21 20:38 322 18.9
2020-Jan-21 20:33 322 18.3
2020-Jan-21 20:28 322 18.3
2020-Jan-21 20:23 322 18.3
2020-Jan-21 20:18 322 18.3
2020-Jan-21 20:13 322 17.8
2020-Jan-21 20:08 322 17.8
2020-Jan-21 20:03 322 17.8
2020-Jan-21 19:58 322 17.8
2020-Jan-21 19:53 322 17.8
2020-Jan-21 19:48 322 17.8
2020-Jan-21 19:43 045 17.8
2020-Jan-21 19:38 045 17.8
2020-Jan-21 19:33 045 17.8
2020-Jan-21 19:28 045 17.8
2020-Jan-21 19:23 045 17.8
2020-Jan-21 19:18 045 17.8
2020-Jan-21 19:13 045 17.8
2020-Jan-21 19:08 045 17.8
2020-Jan-21 19:03 045 17.8
2020-Jan-21 18:58 045 17.8
2020-Jan-21 18:53 045 17.8
2020-Jan-21 18:48 045 17.8
2020-Jan-21 18:43 045 17.8
2020-Jan-21 18:38 045 17.8
2020-Jan-21 18:33 045 17.8
2020-Jan-21 18:28 045 17.8
2020-Jan-21 18:23 045 17.8
2020-Jan-21 18:18 045 18.3
2020-Jan-21 18:13 045 18.3
2020-Jan-21 18:08 045 18.3
2020-Jan-21 18:03 045 18.3
2020-Jan-21 17:58 046 18.3
2020-Jan-21 17:53 046 18.3
2020-Jan-21 17:48 053 18.3
2020-Jan-21 17:43 053 18.3
2020-Jan-21 17:38 053 18.3
2020-Jan-21 17:33 053 18.9
2020-Jan-21 17:28 053 18.9
2020-Jan-21 17:23 053 18.9
2020-Jan-21 17:18 053 18.9
2020-Jan-21 17:13 053 18.9
2020-Jan-21 17:08 053 18.9
2020-Jan-21 17:03 053 18.9
2020-Jan-21 16:58 053 18.9
2020-Jan-21 16:53 053 18.9
2020-Jan-21 16:48 053 19.4
2020-Jan-21 16:43 053 19.4
2020-Jan-21 16:38 053 19.4
2020-Jan-21 16:33 053 19.4
2020-Jan-21 16:28 053 19.4
2020-Jan-21 16:23 053 20.0
2020-Jan-21 16:18 054 20.0
2020-Jan-21 16:13 054 20.0
2020-Jan-21 16:08 054 20.0
2020-Jan-21 16:03 054 20.0
2020-Jan-21 15:58 054 20.0
2020-Jan-21 15:53 055 20.6
2020-Jan-21 15:48 055 20.6
2020-Jan-21 15:43 057 20.6
2020-Jan-21 15:38 057 20.6
2020-Jan-21 15:33 058 20.6
2020-Jan-21 15:28 058 20.6
2020-Jan-21 15:23 059 20.6
2020-Jan-21 15:18 059 20.6
2020-Jan-21 15:13 059 21.1
2020-Jan-21 15:08 059 21.1
2020-Jan-21 15:03 059 21.1
2020-Jan-21 14:58 059 21.1
2020-Jan-21 14:53 059 21.1
2020-Jan-21 14:48 059 21.1
2020-Jan-21 14:43 059 21.1
2020-Jan-21 14:38 059 21.1
2020-Jan-21 14:33 059 21.7
2020-Jan-21 14:28 059 21.7
2020-Jan-21 14:23 059 21.7
2020-Jan-21 14:18 059 21.7
2020-Jan-21 14:13 059 21.7
2020-Jan-21 14:08 059 22.2
2020-Jan-21 14:03 059 22.2
2020-Jan-21 13:58 059 22.2
2020-Jan-21 13:53 059 22.2
2020-Jan-21 13:48 059 22.2
2020-Jan-21 13:43 059 22.2
2020-Jan-21 13:38 059 22.2
2020-Jan-21 13:33 059 22.2
2020-Jan-21 13:28 059 22.8
2020-Jan-21 13:23 059 22.8
2020-Jan-21 13:18 059 22.8
2020-Jan-21 13:13 059 22.8
2020-Jan-21 13:08 059 22.8
2020-Jan-21 12:58 059 22.8
2020-Jan-21 12:53 059 22.8
2020-Jan-21 12:48 059 22.8
2020-Jan-21 12:43 059 22.8
2020-Jan-21 12:38 059 22.8
2020-Jan-21 12:33 059 23.3
2020-Jan-21 12:28 059 23.3
2020-Jan-21 12:23 059 23.3
2020-Jan-21 12:18 059 23.3
2020-Jan-21 12:13 059 23.3
2020-Jan-21 12:08 059 23.3
2020-Jan-21 12:03 059 23.3
2020-Jan-21 11:58 059 23.3
2020-Jan-21 11:53 059 23.3
2020-Jan-21 11:48 059 23.3
2020-Jan-21 11:43 059 23.9
2020-Jan-21 11:38 059 23.9
2020-Jan-21 11:33 059 23.9
2020-Jan-21 11:28 059 23.9
2020-Jan-21 11:23 059 23.9
2020-Jan-21 11:18 059 23.9
2020-Jan-21 11:13 059 23.9
2020-Jan-21 11:08 059 23.9
2020-Jan-21 11:03 059 24.4
2020-Jan-21 10:58 059 24.4
2020-Jan-21 10:53 059 24.4
2020-Jan-21 10:48 059 24.4
2020-Jan-21 08:48 143 28.3
2020-Jan-21 08:43 142 28.3
2020-Jan-21 08:38 143 28.3
2020-Jan-21 08:33 143 28.9
2020-Jan-21 08:28 143 29.4
2020-Jan-21 08:23 142 30.0
2020-Jan-21 08:18 142 30.0
2020-Jan-21 08:13 142 30.6
2020-Jan-21 08:08 141 31.1
2020-Jan-21 08:03 141 32.2
2020-Jan-21 07:58 141 32.2
2020-Jan-21 07:53 141 32.2
2020-Jan-21 07:48 141 32.8
2020-Jan-21 07:43 141 32.8
2020-Jan-21 07:38 141 32.8
2020-Jan-21 07:33 141 32.8
2020-Jan-21 07:28 141 32.8
2020-Jan-21 07:23 143 32.8
2020-Jan-21 07:18 166 2 gusting 6 32.8
2020-Jan-21 07:13 137 33.3
2020-Jan-21 07:08 147 0 gusting 6 33.3
2020-Jan-21 07:03 136 1 gusting 6 33.3
2020-Jan-21 06:58 176 33.9
2020-Jan-21 06:53 163 1 gusting 6 33.9
2020-Jan-21 06:48 162 34.4
2020-Jan-21 06:43 121 2 gusting 9 34.4
2020-Jan-21 06:38 148 4 gusting 9 35.6
2020-Jan-21 06:33 159 36.1
2020-Jan-21 06:28 349 36.7
2020-Jan-21 06:23 153 37.2
2020-Jan-21 06:18 055 37.2
2020-Jan-21 06:13 100 37.2
2020-Jan-21 06:08 247 37.8
2020-Jan-21 06:03 275 37.8
2020-Jan-21 05:58 323 2 gusting 9 37.8
2020-Jan-21 05:53 325 0 gusting 7 37.8
2020-Jan-21 05:48 338 2 gusting 7 37.8
2020-Jan-21 05:43 079 37.8
2020-Jan-21 05:38 280 37.8
2020-Jan-21 05:33 339 2 gusting 10 37.8
2020-Jan-21 05:28 005 2 gusting 8 37.8
2020-Jan-21 05:23 355 1 gusting 11 37.8
2020-Jan-21 05:18 319 3 gusting 11 38.3
2020-Jan-21 05:13 282 1 gusting 8 38.3
2020-Jan-21 05:08 323 0 gusting 10 38.3
2020-Jan-21 05:03 336 6 gusting 10 38.3
2020-Jan-21 04:58 302 1 gusting 8 38.3
2020-Jan-21 04:53 287 2 gusting 8 38.3
2020-Jan-21 04:48 281 1 gusting 5 38.3
2020-Jan-21 04:43 299 0 gusting 11 37.8
2020-Jan-21 04:38 304 3 gusting 12 37.8
2020-Jan-21 04:33 345 3 gusting 12 37.8
2020-Jan-21 04:28 070 0 gusting 10 38.3
2020-Jan-21 04:23 290 0 gusting 11 37.8
2020-Jan-21 04:18 158 0 gusting 14 37.8
2020-Jan-21 04:13 344 2 gusting 10 37.8
2020-Jan-21 04:08 309 1 gusting 11 37.8
2020-Jan-21 04:03 319 5 gusting 11 37.8
2020-Jan-21 03:58 312 0 gusting 6 37.8
2020-Jan-21 03:53 088 1 gusting 14 37.8
2020-Jan-21 03:48 259 3 gusting 14 37.8
2020-Jan-21 03:43 306 3 gusting 13 37.2
2020-Jan-21 03:38 314 4 gusting 13 37.2
2020-Jan-21 03:33 309 4 gusting 11 37.8
2020-Jan-21 03:28 281 1 gusting 7 37.8
2020-Jan-21 03:23 340 1 gusting 11 37.2
2020-Jan-21 03:18 329 3 gusting 11 37.2
2020-Jan-21 03:13 323 5 gusting 13 37.2
2020-Jan-21 03:08 296 3 gusting 15 37.2
2020-Jan-21 03:03 254 5 gusting 16 37.2
2020-Jan-21 02:58 287 6 gusting 16 36.7
2020-Jan-21 02:53 331 6 gusting 13 36.7
2020-Jan-21 02:48 247 5 gusting 13 37.2
2020-Jan-21 02:43 252 7 gusting 13 36.7
2020-Jan-21 02:38 331 4 gusting 13 37.2
2020-Jan-21 02:33 334 36.7
2020-Jan-21 02:28 324 8 gusting 14 36.7
2020-Jan-21 02:23 298 1 gusting 13 36.7
2020-Jan-21 02:18 350 0 gusting 13 36.7
2020-Jan-21 02:13 259 0 gusting 13 36.7
2020-Jan-21 02:08 296 2 gusting 13 36.7
2020-Jan-21 02:03 322 4 gusting 12 36.7
2020-Jan-21 01:58 321 36.7
2020-Jan-21 01:53 252 0 gusting 13 36.1
2020-Jan-21 01:48 072 1 gusting 13 36.1
2020-Jan-21 01:43 309 4 gusting 12 36.1
2020-Jan-21 01:38 333 1 gusting 10 36.1
2020-Jan-21 01:33 339 3 gusting 10 36.1
2020-Jan-21 01:28 253 0 gusting 10 36.1
2020-Jan-21 01:23 048 3 gusting 10 35.6
2020-Jan-21 01:18 320 4 gusting 9 35.6
2020-Jan-21 01:13 327 1 gusting 5 35.6
2020-Jan-21 01:08 331 0 gusting 6 35.6
2020-Jan-21 01:03 217 0 gusting 6 35.0
2020-Jan-21 00:58 333 0 gusting 9 35.0
2020-Jan-21 00:53 325 0 gusting 9 34.4
2020-Jan-21 00:48 333 3 gusting 12 34.4
2020-Jan-21 00:43 039 2 gusting 12 33.9
2020-Jan-21 00:38 129 1 gusting 4 33.9
2020-Jan-21 00:33 197 33.3
2020-Jan-21 00:28 217 32.8
2020-Jan-21 00:23 121 32.8
2020-Jan-21 00:18 298 32.2
2020-Jan-21 00:13 298 32.2
2020-Jan-21 00:08 136 0 gusting 6 31.7
2020-Jan-21 00:03 140 0 gusting 7 31.7
2020-Jan-20 23:58 138 1 gusting 7 31.1
2020-Jan-20 23:53 134 2 gusting 5 31.1
2020-Jan-20 23:48 140 31.1
2020-Jan-20 23:43 140 2 gusting 5 31.1
2020-Jan-20 23:38 142 2 gusting 5 30.6
2020-Jan-20 23:33 142 30.6
2020-Jan-20 23:28 142 30.0
2020-Jan-20 23:23 142 30.0
2020-Jan-20 23:18 143 29.4
2020-Jan-20 23:13 140 29.4
2020-Jan-20 23:08 136 28.9
2020-Jan-20 23:03 135 28.9
2020-Jan-20 22:58 135 28.3
2020-Jan-20 22:53 132 28.3
2020-Jan-20 22:48 132 27.8
2020-Jan-20 22:43 126 27.8
2020-Jan-20 22:38 140 27.2
2020-Jan-20 22:33 148 27.2
2020-Jan-20 22:28 153 26.7
2020-Jan-20 22:23 154 26.7
2020-Jan-20 22:18 134 26.1
2020-Jan-20 22:13 131 26.1
2020-Jan-20 22:08 141 25.6
2020-Jan-20 22:03 141 25.6
2020-Jan-20 21:58 140 25.6
2020-Jan-20 21:53 140 25.0
2020-Jan-20 21:48 139 25.0
2020-Jan-20 21:43 139 25.0
2020-Jan-20 21:38 139 24.4
2020-Jan-20 21:33 139 24.4
2020-Jan-20 21:28 138 23.9
2020-Jan-20 21:23 138 23.9
2020-Jan-20 21:18 138 23.3
2020-Jan-20 21:13 137 23.3
2020-Jan-20 21:08 137 22.8
2020-Jan-20 21:03 121 22.8
2020-Jan-20 20:58 121 22.8
2020-Jan-20 20:53 121 22.2
2020-Jan-20 20:48 121 22.2
2020-Jan-20 20:43 120 22.2
2020-Jan-20 20:38 120 21.7
2020-Jan-20 20:33 120 21.7
2020-Jan-20 20:28 121 21.7
2020-Jan-20 20:23 122 21.7
2020-Jan-20 20:18 122 21.7
2020-Jan-20 20:13 122 21.7
2020-Jan-20 20:08 122 21.1
2020-Jan-20 20:03 122 21.1
2020-Jan-20 19:58 122 21.1
2020-Jan-20 19:53 121 21.1
2020-Jan-20 19:48 121 21.1
2020-Jan-20 19:43 121 21.1
2020-Jan-20 19:38 121 21.1
2020-Jan-20 19:33 121 21.1
2020-Jan-20 19:28 121 21.1
2020-Jan-20 19:23 121 21.1
2020-Jan-20 19:18 121 21.1
2020-Jan-20 19:13 121 21.1
2020-Jan-20 19:08 121 21.1
2020-Jan-20 19:03 121 21.1
2020-Jan-20 18:58 121 21.1
2020-Jan-20 18:53 122 21.1
2020-Jan-20 18:48 123 21.1
2020-Jan-20 18:43 121 21.1
2020-Jan-20 18:38 121 21.1
2020-Jan-20 18:33 121 21.1
2020-Jan-20 18:23 121 21.1
2020-Jan-20 18:18 121 21.1
2020-Jan-20 18:13 158 21.1
2020-Jan-20 18:08 158 21.1
2020-Jan-20 18:03 157 21.1
2020-Jan-20 17:58 156 21.1
2020-Jan-20 17:53 157 21.1
2020-Jan-20 17:48 162 21.7
2020-Jan-20 17:43 275 21.1
2020-Jan-20 17:38 275 21.1
2020-Jan-20 17:33 275 21.1
2020-Jan-20 17:28 275 21.1
2020-Jan-20 17:23 275 21.1
2020-Jan-20 17:18 275 21.1
2020-Jan-20 17:13 275 21.1
2020-Jan-20 17:08 275 21.1
2020-Jan-20 17:03 275 21.1
2020-Jan-20 16:58 275 21.1
2020-Jan-20 16:53 275 21.1
2020-Jan-20 16:48 275 21.1
2020-Jan-20 16:43 275 21.1
2020-Jan-20 16:38 275 21.1
2020-Jan-20 16:33 275 21.1
2020-Jan-20 16:28 275 21.1
2020-Jan-20 16:23 275 21.1
2020-Jan-20 16:18 277 21.1
2020-Jan-20 16:13 277 21.1
2020-Jan-20 16:08 277 21.1
2020-Jan-20 16:03 277 21.1
2020-Jan-20 15:58 277 21.1
2020-Jan-20 15:53 277 21.1
2020-Jan-20 15:48 277 21.1
2020-Jan-20 15:43 277 21.1
2020-Jan-20 15:38 277 21.1
2020-Jan-20 15:33 277 21.1
2020-Jan-20 15:28 277 21.1
2020-Jan-20 15:23 277 21.1
2020-Jan-20 15:18 259 21.1
2020-Jan-20 15:13 259 21.1
2020-Jan-20 15:08 259 21.1
2020-Jan-20 15:03 259 21.1